SCP
-0 -0 -0 -0 -0 -0 -0 -0 -0 -0 -0 -0 -0 -0 0 0 -0 0 0 0 0 0 0 0 0 0 0 0 0 0 0 0 0 0 0 0 0 0 -0 0 -0 -0 0 0 2
-0 -0 -0 -0 -0 -0 -0 -0 -0 -0 -0 -0 -0 -0 0 -0 0 -0 -0 0 0 -0 -0 0 0 0 0 0 0 0 0 0 0 0 0 -0 0 0 0 0 0 0 0 0 4
-0 -0 -0 -0 -0 -0 -0 -0 -0 -0 -0 -0 0 0 0 -0 0 0 0 0 0 0 0 0 0 0 0 0 0 0 0 0 0 0 0 0 0 0 0 0 0 0 0 0 4
-0 -0 -0 -0 -0 -0 -0 -0 -0 -0 0 0 0 0 0 -0 0 0 0 0 0 -0 -0 0 0 0 0 0 0 0 0 0 0 0 0 0 0 0 0 0 0 0 0 0 0
-0 -0 -0 -0 -0 -0 -0 -0 -0 0 0 0 0 0 0 0 0 0 0 0 0 0 0 0 0 0 0 0 0 0 0 0 0 0 0 0 0 0 -0 0 0 0 0 -0 0
-0 -0 -0 -0 -0 -0 -0 -0 -0 0 0 0 0 -0 -0 0 0 0 0 0 0 0 0 0 0 0 0 0 0 0 0 0 0 0 0 0 0 0 -0 -0 -0 0 0 0 -0
-0 -0 -0 -0 -0 -0 -0 -0 -0 0 0 0 0 -0 -0 0 0 0 0 0 0 0 0 0 0 0 0 0 0 0 0 0 0 0 0 0 0 0 0 -0 -0 -0 -0 -0 -0
-0 -0 -0 -0 -0 -0 -0 -0 -0 0 0 0 0 -0 0 0 0 -0 0 0 0 0 -0 -0 0 0 0 0 0 0 0 0 0 0 0 0 -0 0 0 0 -0 0 -0 -0 -0
-0 -0 -0 -0 -0 -0 -0 -0 -0 0 0 -0 0 0 -0 0 0 0 0 0 0 0 0 0 0 0 0 0 0 0 0 0 0 -0 0 0 0 0 0 0 0 0 0 0 -0
-0 -0 -0 0 0 -0 -0 0 0 0 -0 -0 0 0 0 0 0 0 0 0 0 0 0 0 0 0 0 0 -0 0 0 0 0 -0 0 0 0 0 0 0 0 0 0 0 0
-0 -0 -0 -0 -0 -0 -0 0 0 -0 0 -0 -0 -0 0 0 0 0 0 0 0 0 0 0 0 0 0 0 0 0 0 0 -0 0 -0 0 0 -0 0 0 0 0 0 0 0
-0 -0 -0 0 0 -0 0 -0 0 0 -0 -0 -0 -0 0 0 0 0 0 0 0 0 0 0 0 0 0 0 0 0 0 0 0 0 0 -0 0 0 -0 -0 0 0 0 0 0
-0 -0 -0 -0 -0 0 0 0 0 0 0 -0 -0 0 0 0 0 0 0 0 0 0 0 0 0 0 0 0 0 0 0 0 0 0 -0 -0 -0 -0 -0 -0 0 0 0 0 0
-0 0 0 -0 0 0 0 -0 0 0 0 -0 0 0 0 0 0 0 0 0 0 0 0 0 0 0 0 0 0 0 0 0 0 0 -0 0 -0 -0 -0 0 0 0 0 0 0
-0 -0 0 -0 0 0 0 0 0 0 0 0 0 0 0 0 0 0 0 0 0 0 0 0 0 0 0 0 0 0 0 0 0 0 0 -0 0 -0 -0 -0 0 0 0 0 0
-0 0 -0 0 0 0 0 0 0 0 0 0 0 0 0 0 0 0 -0 0 0 0 0 0 0 0 0 0 0 -0 0 0 0 0 0 0 -0 -0 0 0 0 0 0 0 0
-0 -0 0 0 0 0 0 0 0 0 0 0 0 0 0 0 0 0 0 0 -0 0 0 0 0 0 0 0 0 0 0 0 0 0 0 0 -0 0 0 0 -0 0 0 0 0
-0 -0 0 0 0 0 0 0 0 0 0 0 0 0 0 0 0 0 0 0 0 0 0 0 0 0 0 0 0 0 0 0 0 0 0 0 -0 -0 -0 0 0 0 0 -0 0
-0 0 0 0 0 0 0 0 0 0 0 0 0 0 0 0 0 0 0 0 0 0 0 0 0 0 0 0 0 0 0 0 0 0 0 0 0 0 -0 -0 0 0 0 0 0
0 0 0 0 0 0 0 0 0 0 0 0 0 0 0 0 0 0 0 0 0 0 0 0 0 0 0 0 0 0 0 0 0 0 0 -0 0 0 -0 -0 0 0 0 0 0
0 0 0 0 0 0 0 0 0 0 0 0 0 0 0 0 0 0 0 0 0 0 0 0 0 0 0 0 0 0 0 0 0 -0 -0 -0 0 -0 0 -0 0 0 0 0 0
0 0 0 0 0 0 0 0 0 0 0 0 0 0 0 0 0 0 0 0 0 0 0 0 0 0 0 0 0 0 0 0 0 0 -0 0 0 -0 -0 -0 0 0 0 0 0
0 0 0 0 0 0 0 0 0 0 0 0 0 0 0 0 0 0 0 0 0 0 0 0 0 0 0 0 0 0 0 0 0 0 0 0 0 -0 -0 -0 0 0 -0 0 0
0 0 0 0 0 0 0 0 0 0 0 0 0 0 0 0 0 0 0 0 0 0 0 0 0 0 0 0 0 0 0 0 0 0 0 0 -0 -0 -0 0 -0 -0 -0 0 0
0 0 0 0 0 0 0 0 0 0 0 0 0 0 0 0 0 0 0 0 0 0 0 0 0 0 0 0 -0 0 0 0 0 0 0 0 0 -0 -0 0 -0 0 -0 0 0
0 0 0 0 0 0 0 0 0 0 0 0 0 0 0 0 0 0 0 0 0 0 0 0 0 0 0 0 0 0 0 0 -0 0 0 0 0 0 0 -0 -0 -0 0 0 0
0 0 0 0 0 0 0 0 0 0 0 0 0 0 0 0 0 0 0 0 0 0 0 0 0 0 0 0 0 0 0 -0 0 0 0 0 0 -0 0 0 -0 -0 -0 0 0
Wind_Speed_500mb
47 45 42 39 40 42 40 36 31 27 23 20 19 18 18 28 54 53 47 42 44 35 25 16 19 16 7 9 23 8 2 10 10 9 17 50 27 72 46 46 56 43 66 52 81
48 44 39 35 38 43 39 39 33 32 27 22 19 20 23 44 51 50 40 37 40 50 42 30 25 16 6 8 8 11 7 12 10 11 21 50 49 67 47 57 63 63 74 17 93
52 48 40 34 36 38 38 32 33 32 25 20 18 19 21 24 23 37 42 45 40 30 34 37 36 24 7 8 18 10 16 18 42 55 59 63 60 74 44 51 41 52 56 7 73
54 49 40 34 35 37 37 31 34 32 30 21 17 25 36 12 9 29 35 39 45 20 32 37 38 31 7 10 29 13 27 38 45 54 52 43 67 65 58 69 69 60 58 31 32
55 48 42 37 35 33 30 26 31 32 31 35 31 32 29 33 21 24 27 28 33 38 37 30 24 26 7 22 34 12 13 38 47 45 53 53 41 46 78 79 74 70 64 46 26
56 48 44 39 35 30 27 27 25 25 25 29 33 44 29 27 21 26 28 18 23 31 30 34 39 31 23 10 13 32 49 40 51 46 47 31 38 44 77 72 65 67 72 54 35
57 49 44 40 35 28 28 24 16 19 23 24 21 26 35 24 26 29 32 28 27 34 36 35 40 43 38 14 32 29 36 33 32 33 25 48 43 32 46 72 63 50 57 58 52
58 51 42 37 33 32 27 28 13 20 14 18 18 15 18 23 25 33 24 30 30 30 45 41 35 39 21 30 24 15 9 12 14 31 14 16 25 23 46 62 57 58 61 55 49
59 51 38 33 27 35 31 28 12 9 9 11 10 13 4 21 33 10 22 38 29 37 33 34 33 12 15 9 10 11 10 29 28 17 20 12 14 23 57 51 51 59 69 65 72
61 52 35 27 26 25 39 43 10 10 6 6 14 3 9 23 34 10 24 30 33 33 28 23 11 8 10 10 9 22 12 15 28 15 18 23 19 15 42 38 41 60 62 60 67
63 52 34 25 17 26 40 35 25 4 10 9 12 6 8 28 30 12 22 33 37 36 5 15 12 11 19 13 16 22 20 20 22 27 15 25 28 18 28 43 34 46 56 70 70
64 53 32 20 16 25 38 28 17 13 16 14 19 28 12 35 20 11 26 19 12 12 20 11 7 16 17 18 16 19 21 18 18 19 14 20 31 28 15 18 28 47 60 66 73
65 53 31 12 13 25 32 24 19 22 3 19 18 4 9 36 22 7 28 20 6 11 17 6 17 26 26 22 17 11 11 14 11 13 10 15 21 16 15 24 36 44 54 57 66
65 51 31 14 3 18 22 25 24 18 7 7 8 3 24 41 5 26 33 24 4 12 13 9 17 27 21 17 11 19 14 13 17 9 10 2 26 23 19 19 20 36 46 46 45
65 52 21 22 3 19 21 24 15 6 8 4 8 14 42 21 21 27 42 36 12 12 12 13 29 30 8 13 17 17 26 11 10 24 3 33 6 13 12 23 27 19 37 47 55
65 48 14 19 13 17 22 5 5 9 3 5 6 16 18 21 21 34 44 33 9 6 18 19 31 9 4 13 16 24 13 12 9 2 3 11 10 20 22 22 28 13 42 49 50
64 35 7 21 19 19 16 3 9 9 10 13 11 16 17 19 14 25 20 18 8 12 11 11 10 12 9 27 21 25 11 9 11 7 10 10 12 19 17 6 25 26 42 56 63
63 23 7 17 28 24 20 9 12 3 5 5 10 21 9 20 12 25 23 9 18 9 7 13 20 12 18 29 12 17 5 4 10 5 19 21 8 8 20 22 35 48 51 53 67
60 16 6 20 27 23 6 10 4 2 4 8 15 9 11 21 11 17 10 4 4 7 6 10 12 37 32 25 10 12 4 11 8 9 8 8 11 3 37 40 42 48 60 59 57
59 18 1 24 21 14 9 4 7 4 6 6 6 3 9 9 9 13 8 5 4 10 6 7 19 14 16 16 10 11 10 6 0 7 7 11 5 9 34 35 35 36 45 60 74
43 16 8 25 19 1 6 8 4 3 10 7 6 7 3 7 2 5 10 14 4 2 10 5 6 16 16 4 17 6 7 5 6 7 4 8 3 12 19 21 30 34 51 57 69
31 8 12 23 8 5 3 7 8 11 12 5 6 6 8 6 8 8 10 7 29 8 8 3 6 11 21 33 6 7 6 7 6 8 9 7 6 13 20 29 37 45 57 62 60
39 13 13 21 5 5 10 10 5 6 6 7 5 8 10 8 1 12 12 14 33 6 7 6 4 10 17 9 1 6 19 20 11 6 11 8 7 7 28 31 46 50 61 62 72
16 8 11 8 10 7 8 9 7 9 5 7 10 13 2 7 10 11 21 12 10 24 13 24 8 12 11 25 24 19 21 18 9 4 13 12 28 31 36 39 44 60 60 63 61
5 6 5 8 9 18 4 8 15 10 4 5 5 4 7 4 13 10 6 9 21 11 15 7 9 9 26 36 36 33 7 19 9 6 8 15 24 20 35 36 50 55 58 55 62
7 8 9 22 24 7 4 7 9 9 9 9 10 16 13 12 20 26 8 4 13 6 7 5 7 9 30 25 17 19 8 20 21 14 6 17 19 21 42 49 47 57 47 50 64
11 11 10 13 9 2 8 4 14 19 12 12 13 7 14 17 19 45 49 52 26 12 7 6 4 7 12 21 18 7 4 18 21 8 9 8 18 27 31 33 41 36 39 60 62
Wind_Direction_500mb
10 10 12 15 15 14 14 17 19 20 21 23 21 24 27 65 60 48 37 31 22 5 350 358 11 33 313 265 230 254 308 250 256 248 275 303 310 297 307 303 321 326 319 261 186
11 12 12 14 13 12 15 12 16 13 11 14 13 32 68 104 61 49 37 30 29 27 22 15 0 352 332 260 268 195 202 245 254 287 289 295 292 292 311 311 311 322 330 258 173
9 9 10 12 13 16 19 30 25 17 9 4 9 30 85 135 63 31 31 21 18 23 20 5 2 357 301 319 248 249 251 269 276 280 281 285 290 291 290 289 291 305 316 22 164
8 8 10 9 12 17 23 32 24 26 29 24 31 74 74 95 65 4 19 18 17 21 27 7 359 351 309 295 297 279 280 278 287 285 282 274 277 281 281 270 283 288 296 300 223
7 10 10 8 9 15 22 25 20 26 43 63 64 95 78 65 28 17 10 14 11 17 6 354 353 338 330 306 321 298 303 307 307 307 304 310 287 281 281 282 283 278 280 285 259
6 8 9 8 7 12 20 27 21 36 62 61 80 72 69 68 46 6 344 1 358 355 348 339 336 317 282 271 300 284 296 301 309 307 299 291 297 294 283 296 304 279 269 274 268
5 6 8 9 11 22 17 23 30 57 72 67 79 78 65 52 14 5 354 3 332 341 345 345 336 332 293 298 278 272 294 296 299 298 292 298 279 273 302 319 298 304 272 271 266
4 4 7 14 24 25 19 25 64 72 75 66 56 76 86 28 29 4 42 23 6 343 341 337 327 330 307 271 292 287 306 307 351 313 315 355 300 315 338 336 337 324 292 292 286
4 2 6 11 27 32 30 17 89 82 43 59 63 66 61 359 5 25 354 359 353 343 11 359 345 340 349 23 354 1 300 312 301 261 291 206 302 308 313 316 321 322 316 292 280
2 2 4 12 31 31 17 26 93 51 49 107 47 102 25 341 349 6 345 350 2 352 340 343 1 22 4 47 299 294 291 281 293 273 278 284 284 304 308 301 318 315 313 314 278
0 0 2 8 22 17 18 22 48 37 24 335 274 259 271 350 345 358 332 346 3 351 354 331 29 317 280 260 248 279 289 297 300 293 296 286 291 296 306 304 313 315 317 315 306
358 359 2 16 47 41 27 44 26 334 316 266 253 244 258 345 325 325 355 14 8 321 327 358 286 268 258 276 297 296 292 298 290 294 287 286 293 305 286 287 314 301 304 310 310
355 356 3 26 70 45 33 21 353 331 263 289 237 243 312 331 313 330 1 336 294 305 291 232 278 343 331 313 309 304 294 310 299 320 283 287 290 291 277 290 301 295 292 304 305
354 354 354 13 85 15 28 2 344 327 67 271 193 339 338 335 56 30 14 1 323 276 295 258 330 324 318 299 338 312 279 268 298 4 283 350 287 280 273 289 297 297 295 296 322
354 348 351 16 31 19 354 346 323 349 62 21 27 348 343 357 336 16 4 349 307 320 50 284 321 322 335 359 340 279 315 283 283 295 314 283 273 270 282 289 288 275 282 295 298
354 342 340 5 2 351 10 352 298 48 78 20 40 328 3 358 4 3 6 12 16 349 16 325 308 307 91 346 327 321 314 313 325 48 334 258 181 273 255 248 275 327 354 347 319
353 344 23 14 12 19 10 116 46 84 338 360 335 335 329 352 18 9 345 42 37 5 340 322 298 315 44 348 319 351 30 325 347 345 232 308 317 248 253 353 40 357 0 6 357
353 348 352 6 2 6 6 62 70 64 20 10 329 316 25 20 14 357 349 360 36 68 320 351 329 15 330 316 280 298 135 220 292 269 293 310 235 294 47 41 32 21 4 5 356
350 345 331 13 350 358 353 54 195 67 51 1 332 24 349 353 341 11 322 338 57 66 71 327 267 313 304 326 319 319 24 220 255 262 280 260 299 184 16 17 14 5 4 360 353
345 339 116 6 345 317 68 196 143 95 132 73 58 33 325 349 11 13 303 108 82 71 99 245 293 288 310 318 73 46 339 330 192 297 279 291 37 15 11 0 357 358 347 344 343
347 338 57 344 319 58 124 206 187 245 136 151 215 275 280 326 291 289 262 312 98 58 17 258 182 290 323 290 317 346 318 286 229 248 314 320 249 356 354 0 352 346 340 338 334
351 346 352 354 58 62 80 309 262 248 174 163 176 235 200 232 276 242 240 208 296 58 323 279 252 282 280 295 295 171 281 269 239 285 272 245 251 262 27 2 344 331 333 331 328
338 301 9 340 92 344 309 300 240 323 168 139 179 225 252 248 328 210 246 249 293 142 207 198 268 302 326 350 11 342 341 328 235 248 277 302 296 309 8 346 336 332 331 330 328
340 342 330 42 88 90 353 270 303 336 116 145 213 239 321 274 193 275 285 299 290 295 263 161 190 204 255 280 292 288 326 13 8 310 315 270 319 335 350 339 333 330 327 327 329
311 279 6 300 320 323 191 266 280 286 185 95 333 312 237 218 298 255 240 288 308 294 145 117 248 233 253 264 281 297 315 356 353 2 253 321 307 343 337 326 320 321 328 334 329
290 338 323 291 292 284 243 262 256 270 183 252 194 254 250 215 200 275 234 241 249 261 115 138 270 290 296 274 286 288 20 351 357 334 264 304 297 339 314 317 318 323 321 333 327
238 251 287 282 295 345 231 326 312 307 282 208 241 240 276 265 269 278 265 262 229 189 143 172 268 294 295 320 328 190 354 348 316 323 301 312 315 328 328 328 322 308 307 321 319
Wind_Speed_850mb
47 45 42 39 40 42 40 36 31 27 23 20 19 18 18 28 54 53 47 42 44 35 25 16 19 16 7 9 23 8 2 10 10 9 17 50 27 72 46 46 56 43 66 52 81
48 44 39 35 38 43 39 39 33 32 27 22 19 20 23 44 51 50 40 37 40 50 42 30 25 16 6 8 8 11 7 12 10 11 21 50 49 67 47 57 63 63 74 17 93
52 48 40 34 36 38 38 32 33 32 25 20 18 19 21 24 23 37 42 45 40 30 34 37 36 24 7 8 18 10 16 18 42 55 59 63 60 74 44 51 41 52 56 7 73
54 49 40 34 35 37 37 31 34 32 30 21 17 25 36 12 9 29 35 39 45 20 32 37 38 31 7 10 29 13 27 38 45 54 52 43 67 65 58 69 69 60 58 31 32
55 48 42 37 35 33 30 26 31 32 31 35 31 32 29 33 21 24 27 28 33 38 37 30 24 26 7 22 34 12 13 38 47 45 53 53 41 46 78 79 74 70 64 46 26
56 48 44 39 35 30 27 27 25 25 25 29 33 44 29 27 21 26 28 18 23 31 30 34 39 31 23 10 13 32 49 40 51 46 47 31 38 44 77 72 65 67 72 54 35
57 49 44 40 35 28 28 24 16 19 23 24 21 26 35 24 26 29 32 28 27 34 36 35 40 43 38 14 32 29 36 33 32 33 25 48 43 32 46 72 63 50 57 58 52
58 51 42 37 33 32 27 28 13 20 14 18 18 15 18 23 25 33 24 30 30 30 45 41 35 39 21 30 24 15 9 12 14 31 14 16 25 23 46 62 57 58 61 55 49
59 51 38 33 27 35 31 28 12 9 9 11 10 13 4 21 33 10 22 38 29 37 33 34 33 12 15 9 10 11 10 29 28 17 20 12 14 23 57 51 51 59 69 65 72
61 52 35 27 26 25 39 43 10 10 6 6 14 3 9 23 34 10 24 30 33 33 28 23 11 8 10 10 9 22 12 15 28 15 18 23 19 15 42 38 41 60 62 60 67
63 52 34 25 17 26 40 35 25 4 10 9 12 6 8 28 30 12 22 33 37 36 5 15 12 11 19 13 16 22 20 20 22 27 15 25 28 18 28 43 34 46 56 70 70
64 53 32 20 16 25 38 28 17 13 16 14 19 28 12 35 20 11 26 19 12 12 20 11 7 16 17 18 16 19 21 18 18 19 14 20 31 28 15 18 28 47 60 66 73
65 53 31 12 13 25 32 24 19 22 3 19 18 4 9 36 22 7 28 20 6 11 17 6 17 26 26 22 17 11 11 14 11 13 10 15 21 16 15 24 36 44 54 57 66
65 51 31 14 3 18 22 25 24 18 7 7 8 3 24 41 5 26 33 24 4 12 13 9 17 27 21 17 11 19 14 13 17 9 10 2 26 23 19 19 20 36 46 46 45
65 52 21 22 3 19 21 24 15 6 8 4 8 14 42 21 21 27 42 36 12 12 12 13 29 30 8 13 17 17 26 11 10 24 3 33 6 13 12 23 27 19 37 47 55
65 48 14 19 13 17 22 5 5 9 3 5 6 16 18 21 21 34 44 33 9 6 18 19 31 9 4 13 16 24 13 12 9 2 3 11 10 20 22 22 28 13 42 49 50
64 35 7 21 19 19 16 3 9 9 10 13 11 16 17 19 14 25 20 18 8 12 11 11 10 12 9 27 21 25 11 9 11 7 10 10 12 19 17 6 25 26 42 56 63
63 23 7 17 28 24 20 9 12 3 5 5 10 21 9 20 12 25 23 9 18 9 7 13 20 12 18 29 12 17 5 4 10 5 19 21 8 8 20 22 35 48 51 53 67
60 16 6 20 27 23 6 10 4 2 4 8 15 9 11 21 11 17 10 4 4 7 6 10 12 37 32 25 10 12 4 11 8 9 8 8 11 3 37 40 42 48 60 59 57
59 18 1 24 21 14 9 4 7 4 6 6 6 3 9 9 9 13 8 5 4 10 6 7 19 14 16 16 10 11 10 6 0 7 7 11 5 9 34 35 35 36 45 60 74
43 16 8 25 19 1 6 8 4 3 10 7 6 7 3 7 2 5 10 14 4 2 10 5 6 16 16 4 17 6 7 5 6 7 4 8 3 12 19 21 30 34 51 57 69
31 8 12 23 8 5 3 7 8 11 12 5 6 6 8 6 8 8 10 7 29 8 8 3 6 11 21 33 6 7 6 7 6 8 9 7 6 13 20 29 37 45 57 62 60
39 13 13 21 5 5 10 10 5 6 6 7 5 8 10 8 1 12 12 14 33 6 7 6 4 10 17 9 1 6 19 20 11 6 11 8 7 7 28 31 46 50 61 62 72
16 8 11 8 10 7 8 9 7 9 5 7 10 13 2 7 10 11 21 12 10 24 13 24 8 12 11 25 24 19 21 18 9 4 13 12 28 31 36 39 44 60 60 63 61
5 6 5 8 9 18 4 8 15 10 4 5 5 4 7 4 13 10 6 9 21 11 15 7 9 9 26 36 36 33 7 19 9 6 8 15 24 20 35 36 50 55 58 55 62
7 8 9 22 24 7 4 7 9 9 9 9 10 16 13 12 20 26 8 4 13 6 7 5 7 9 30 25 17 19 8 20 21 14 6 17 19 21 42 49 47 57 47 50 64
11 11 10 13 9 2 8 4 14 19 12 12 13 7 14 17 19 45 49 52 26 12 7 6 4 7 12 21 18 7 4 18 21 8 9 8 18 27 31 33 41 36 39 60 62
Wind_Direction_850mb
10 10 12 15 15 14 14 17 19 20 21 23 21 24 27 65 60 48 37 31 22 5 350 358 11 33 313 265 230 254 308 250 256 248 275 303 310 297 307 303 321 326 319 261 186
11 12 12 14 13 12 15 12 16 13 11 14 13 32 68 104 61 49 37 30 29 27 22 15 0 352 332 260 268 195 202 245 254 287 289 295 292 292 311 311 311 322 330 258 173
9 9 10 12 13 16 19 30 25 17 9 4 9 30 85 135 63 31 31 21 18 23 20 5 2 357 301 319 248 249 251 269 276 280 281 285 290 291 290 289 291 305 316 22 164
8 8 10 9 12 17 23 32 24 26 29 24 31 74 74 95 65 4 19 18 17 21 27 7 359 351 309 295 297 279 280 278 287 285 282 274 277 281 281 270 283 288 296 300 223
7 10 10 8 9 15 22 25 20 26 43 63 64 95 78 65 28 17 10 14 11 17 6 354 353 338 330 306 321 298 303 307 307 307 304 310 287 281 281 282 283 278 280 285 259
6 8 9 8 7 12 20 27 21 36 62 61 80 72 69 68 46 6 344 1 358 355 348 339 336 317 282 271 300 284 296 301 309 307 299 291 297 294 283 296 304 279 269 274 268
5 6 8 9 11 22 17 23 30 57 72 67 79 78 65 52 14 5 354 3 332 341 345 345 336 332 293 298 278 272 294 296 299 298 292 298 279 273 302 319 298 304 272 271 266
4 4 7 14 24 25 19 25 64 72 75 66 56 76 86 28 29 4 42 23 6 343 341 337 327 330 307 271 292 287 306 307 351 313 315 355 300 315 338 336 337 324 292 292 286
4 2 6 11 27 32 30 17 89 82 43 59 63 66 61 359 5 25 354 359 353 343 11 359 345 340 349 23 354 1 300 312 301 261 291 206 302 308 313 316 321 322 316 292 280
2 2 4 12 31 31 17 26 93 51 49 107 47 102 25 341 349 6 345 350 2 352 340 343 1 22 4 47 299 294 291 281 293 273 278 284 284 304 308 301 318 315 313 314 278
0 0 2 8 22 17 18 22 48 37 24 335 274 259 271 350 345 358 332 346 3 351 354 331 29 317 280 260 248 279 289 297 300 293 296 286 291 296 306 304 313 315 317 315 306
358 359 2 16 47 41 27 44 26 334 316 266 253 244 258 345 325 325 355 14 8 321 327 358 286 268 258 276 297 296 292 298 290 294 287 286 293 305 286 287 314 301 304 310 310
355 356 3 26 70 45 33 21 353 331 263 289 237 243 312 331 313 330 1 336 294 305 291 232 278 343 331 313 309 304 294 310 299 320 283 287 290 291 277 290 301 295 292 304 305
354 354 354 13 85 15 28 2 344 327 67 271 193 339 338 335 56 30 14 1 323 276 295 258 330 324 318 299 338 312 279 268 298 4 283 350 287 280 273 289 297 297 295 296 322
354 348 351 16 31 19 354 346 323 349 62 21 27 348 343 357 336 16 4 349 307 320 50 284 321 322 335 359 340 279 315 283 283 295 314 283 273 270 282 289 288 275 282 295 298
354 342 340 5 2 351 10 352 298 48 78 20 40 328 3 358 4 3 6 12 16 349 16 325 308 307 91 346 327 321 314 313 325 48 334 258 181 273 255 248 275 327 354 347 319
353 344 23 14 12 19 10 116 46 84 338 360 335 335 329 352 18 9 345 42 37 5 340 322 298 315 44 348 319 351 30 325 347 345 232 308 317 248 253 353 40 357 0 6 357
353 348 352 6 2 6 6 62 70 64 20 10 329 316 25 20 14 357 349 360 36 68 320 351 329 15 330 316 280 298 135 220 292 269 293 310 235 294 47 41 32 21 4 5 356
350 345 331 13 350 358 353 54 195 67 51 1 332 24 349 353 341 11 322 338 57 66 71 327 267 313 304 326 319 319 24 220 255 262 280 260 299 184 16 17 14 5 4 360 353
345 339 116 6 345 317 68 196 143 95 132 73 58 33 325 349 11 13 303 108 82 71 99 245 293 288 310 318 73 46 339 330 192 297 279 291 37 15 11 0 357 358 347 344 343
347 338 57 344 319 58 124 206 187 245 136 151 215 275 280 326 291 289 262 312 98 58 17 258 182 290 323 290 317 346 318 286 229 248 314 320 249 356 354 0 352 346 340 338 334
351 346 352 354 58 62 80 309 262 248 174 163 176 235 200 232 276 242 240 208 296 58 323 279 252 282 280 295 295 171 281 269 239 285 272 245 251 262 27 2 344 331 333 331 328
338 301 9 340 92 344 309 300 240 323 168 139 179 225 252 248 328 210 246 249 293 142 207 198 268 302 326 350 11 342 341 328 235 248 277 302 296 309 8 346 336 332 331 330 328
340 342 330 42 88 90 353 270 303 336 116 145 213 239 321 274 193 275 285 299 290 295 263 161 190 204 255 280 292 288 326 13 8 310 315 270 319 335 350 339 333 330 327 327 329
311 279 6 300 320 323 191 266 280 286 185 95 333 312 237 218 298 255 240 288 308 294 145 117 248 233 253 264 281 297 315 356 353 2 253 321 307 343 337 326 320 321 328 334 329
290 338 323 291 292 284 243 262 256 270 183 252 194 254 250 215 200 275 234 241 249 261 115 138 270 290 296 274 286 288 20 351 357 334 264 304 297 339 314 317 318 323 321 333 327
238 251 287 282 295 345 231 326 312 307 282 208 241 240 276 265 269 278 265 262 229 189 143 172 268 294 295 320 328 190 354 348 316 323 301 312 315 328 328 328 322 308 307 321 319